Location: Madrid
(40.4000°N, 3.6830°W)
Time: 22:53:14
(UTC+02:00)

ISS - Pass Details

Date: 24 July 2017
Orbit: 400 x 408 km, 51.6° (Epoch: 24 July)

Event Time Altitude Azimuth Distance (km) Brightness Sun altitude
Rises 02:33:04 0° 305° (NW) 2,312 0.4 -29.7°
Reaches altitude 10° 02:36:18 10° 340° (NNW) 1,454 -0.3 -29.6°
Maximum altitude 02:37:32 12° 3° (N) 1,361 -0.3 -29.6°
Drops below altitude 10° 02:38:45 10° 25° (NNE) 1,455 -0.2 -29.6°
Sets 02:42:00 0° 60° (ENE) 2,315 0.5 -29.5°
